Torna al catalogo

EXPLORER 27

AttivoScienzaLEO
NORAD 1328·PAYLOAD·🇺🇸 United States

Lanciato Apr 29, 1965 da Wallops Flight Facility

Loading…

Prossimi Passaggi (prossime 24 ore)

TLE

AggiornatoSource: CelesTrak SupGP

Epoca: Sep 14, 2026, 00:00 UTC

1 01328C 65032A   26257.00000000 -.00000045  00000+0 -71186-4 0  2576
2 01328  41.1845 357.2682 0239922  47.6487  79.3367 13.38935557    10

Traccia EXPLORER 27 in tempo reale con AllMySat

Download on the App Store